Airfield :







YOU CAN JOIN US ON...

 
LOGIN :

Register | Disclaimer

   EN    FR    IT 

 









Legend :    VFR   Marginal VFR   IFR   Intensive IFR   Very Intensive IFR
Visi :
Ceiling :
>= 8 km
>= 3000ft
5 to 8 km
1000 to 3000 ft
1500m to 5 km
500 to 1000 ft
800 to 1500m
200 to 500 ft
< 800m
< 200 ft
Symbols :   Thunderstorms  Fog  Heavy snow  Heavy precipitations  Wind > 20 kt






- Airport Elevation : 565 ft
- IATA code : STI


MDST - Cibao Int.

CURRENT METAR :
  • 291900Z 14007KT 4000 RA FEW016CB BKN018 BKN070 25/25 Q1011 CB/E/SE/

EXPIRED METARs :
  • 291800Z 12005KT 9999 FEW018CB SCT020 29/24 Q1011 CB/NE/SE/
  • 291700Z 15007KT 9999 FEW017CB BKN018 26/24 Q1013 RERA CB/NE

TAF TAF MDST
Valid from the 29 at 18:00 until the 30 at 18:00 UTC


291600Z 2918/3018 12008KT 9999 SCT022 BKN300
PROB30 2920/3000 7000 -TSSH FEW018CB SCT020 BKN300
MDCS FIR / North America



MET'MAP, your aeronautical weather chart ! - Copyright ORBIFLY December 2007 - Disclaimer

ORBIFLY MET'MAP TEAM :

Programming & Development : Alexandra Zaïnal
Concept & original design : Baudouin d'Aumeries
Assistance for programming : Marc-Olivier Méhu
Technical & hardware support : Manuel Goepfert

Contact : metmap@orbifly.com




SOURCES & CREDITS :

   NOAA